Year,Month,Day,Hour,Minute,Value (Times are PST for temperature in C)
2020,09,29,00,00,11.20
2020,09,29,00,01,11.10
2020,09,29,00,02,11.10
2020,09,29,00,03,11.10
2020,09,29,00,04,11.10
2020,09,29,00,05,11.20
2020,09,29,00,06,11.20
2020,09,29,00,07,11.20
2020,09,29,00,08,11.20
2020,09,29,00,09,11.30
2020,09,29,00,10,11.30
2020,09,29,00,11,11.40
2020,09,29,00,12,11.50
2020,09,29,00,13,11.50
2020,09,29,00,14,11.50
2020,09,29,00,15,11.50
2020,09,29,00,16,11.60
2020,09,29,00,17,11.60
2020,09,29,00,18,11.70
2020,09,29,00,19,11.70
2020,09,29,00,20,11.70
2020,09,29,00,21,11.70
2020,09,29,00,22,11.80
2020,09,29,00,23,11.80
2020,09,29,00,24,11.80
2020,09,29,00,25,11.80
2020,09,29,00,26,11.80
2020,09,29,00,27,11.80
2020,09,29,00,28,11.80
2020,09,29,00,29,11.80
2020,09,29,00,30,11.80
2020,09,29,00,31,11.80
2020,09,29,00,32,11.80
2020,09,29,00,33,11.80
2020,09,29,00,34,11.80
2020,09,29,00,35,11.80
2020,09,29,00,36,11.70
2020,09,29,00,37,11.70
2020,09,29,00,38,11.70
2020,09,29,00,39,11.70
2020,09,29,00,40,11.70
2020,09,29,00,41,11.70
2020,09,29,00,42,11.70
2020,09,29,00,43,11.60
2020,09,29,00,44,11.60
2020,09,29,00,45,11.50
2020,09,29,00,46,11.50
2020,09,29,00,47,11.40
2020,09,29,00,48,11.30
2020,09,29,00,49,11.30
2020,09,29,00,50,11.20
2020,09,29,00,51,11.20
2020,09,29,00,52,11.20
2020,09,29,00,53,11.10
2020,09,29,00,54,11.10
2020,09,29,00,55,11.10
2020,09,29,00,56,11.10
2020,09,29,00,57,11.10
2020,09,29,00,58,11.10
2020,09,29,00,59,11.10
2020,09,29,01,00,11.20
2020,09,29,01,01,11.30
2020,09,29,01,02,11.30
2020,09,29,01,03,11.40
2020,09,29,01,04,11.50
2020,09,29,01,05,11.50
2020,09,29,01,06,11.50
2020,09,29,01,07,11.40
2020,09,29,01,08,11.40
2020,09,29,01,09,11.30
2020,09,29,01,10,11.30
2020,09,29,01,11,11.30
2020,09,29,01,12,11.20
2020,09,29,01,13,11.20
2020,09,29,01,14,11.10
2020,09,29,01,15,11.10
2020,09,29,01,16,11.00
2020,09,29,01,17,10.90
2020,09,29,01,18,10.90
2020,09,29,01,19,10.90
2020,09,29,01,20,10.90
2020,09,29,01,21,10.90
2020,09,29,01,22,10.90
2020,09,29,01,23,10.90
2020,09,29,01,24,10.90
2020,09,29,01,25,10.90
2020,09,29,01,26,10.90
2020,09,29,01,27,10.90
2020,09,29,01,28,10.90
2020,09,29,01,29,10.90
2020,09,29,01,30,10.90
2020,09,29,01,31,10.90
2020,09,29,01,32,10.90
2020,09,29,01,33,10.90
2020,09,29,01,34,11.00
2020,09,29,01,35,11.00
2020,09,29,01,36,11.00
2020,09,29,01,37,10.90
2020,09,29,01,38,10.90
2020,09,29,01,39,10.90
2020,09,29,01,40,10.90
2020,09,29,01,41,10.90
2020,09,29,01,42,10.90
2020,09,29,01,43,10.80
2020,09,29,01,44,10.80
2020,09,29,01,45,10.80
2020,09,29,01,46,10.70
2020,09,29,01,47,10.70
2020,09,29,01,48,10.60
2020,09,29,01,49,10.60
2020,09,29,01,50,10.60
2020,09,29,01,51,10.60
2020,09,29,01,52,10.50
2020,09,29,01,53,10.50
2020,09,29,01,54,10.40
2020,09,29,01,55,10.40
2020,09,29,01,56,10.40
2020,09,29,01,57,10.40
2020,09,29,01,58,10.40
2020,09,29,01,59,10.40
2020,09,29,02,00,10.30
2020,09,29,02,01,10.30
2020,09,29,02,02,10.30
2020,09,29,02,03,10.30
2020,09,29,02,04,10.30
2020,09,29,02,05,10.30
2020,09,29,02,06,10.30
2020,09,29,02,07,10.30
2020,09,29,02,08,10.30
2020,09,29,02,09,10.30
2020,09,29,02,10,10.30
2020,09,29,02,11,10.30
2020,09,29,02,12,10.30
2020,09,29,02,13,10.30
2020,09,29,02,14,10.20
2020,09,29,02,15,10.20
2020,09,29,02,16,10.20
2020,09,29,02,17,10.20
2020,09,29,02,18,10.20
2020,09,29,02,19,10.20
2020,09,29,02,20,10.20
2020,09,29,02,21,10.30
2020,09,29,02,22,10.30
2020,09,29,02,23,10.20
2020,09,29,02,24,10.30
2020,09,29,02,25,10.30
2020,09,29,02,26,10.30
2020,09,29,02,27,10.30
2020,09,29,02,28,10.40
2020,09,29,02,29,10.40
2020,09,29,02,30,10.40
2020,09,29,02,31,10.40
2020,09,29,02,32,10.40
2020,09,29,02,33,10.40
2020,09,29,02,34,10.30
2020,09,29,02,35,10.30
2020,09,29,02,36,10.30
2020,09,29,02,37,10.20
2020,09,29,02,38,10.20
2020,09,29,02,39,10.20
2020,09,29,02,40,10.20
2020,09,29,02,41,10.20
2020,09,29,02,42,10.20
2020,09,29,02,43,10.30
2020,09,29,02,44,10.30
2020,09,29,02,45,10.40
2020,09,29,02,46,10.50
2020,09,29,02,47,10.50
2020,09,29,02,48,10.60
2020,09,29,02,49,10.60
2020,09,29,02,50,10.70
2020,09,29,02,51,10.70
2020,09,29,02,52,10.60
2020,09,29,02,53,10.60
2020,09,29,02,54,10.50
2020,09,29,02,55,10.40
2020,09,29,02,56,10.40
2020,09,29,02,57,10.30
2020,09,29,02,58,10.30
2020,09,29,02,59,10.20
2020,09,29,03,00,10.20
2020,09,29,03,01,10.20
2020,09,29,03,02,10.20
2020,09,29,03,03,10.10
2020,09,29,03,04,10.10
2020,09,29,03,05,10.10
2020,09,29,03,06,10.10
2020,09,29,03,07,10.10
2020,09,29,03,08,10.10
2020,09,29,03,09,10.10
2020,09,29,03,10,10.10
2020,09,29,03,11,10.10
2020,09,29,03,12,10.10
2020,09,29,03,13,10.10
2020,09,29,03,14,10.10
2020,09,29,03,15,10.10
2020,09,29,03,16,10.10
2020,09,29,03,17,10.10
2020,09,29,03,18,10.10
2020,09,29,03,19,10.10
2020,09,29,03,20,10.00
2020,09,29,03,21,10.00
2020,09,29,03,22,10.00
2020,09,29,03,23,10.00
2020,09,29,03,24,10.00
2020,09,29,03,25,10.00
2020,09,29,03,26,9.90
2020,09,29,03,27,9.90
2020,09,29,03,28,9.90
2020,09,29,03,29,10.00
2020,09,29,03,30,10.00
2020,09,29,03,31,10.00
2020,09,29,03,32,10.00
2020,09,29,03,33,10.00
2020,09,29,03,34,10.10
2020,09,29,03,35,10.10
2020,09,29,03,36,10.10
2020,09,29,03,37,10.20
2020,09,29,03,38,10.20
2020,09,29,03,39,10.20
2020,09,29,03,40,10.20
2020,09,29,03,41,10.20
2020,09,29,03,42,10.20
2020,09,29,03,43,10.20
2020,09,29,03,44,10.20
2020,09,29,03,45,10.20
2020,09,29,03,46,10.20
2020,09,29,03,47,10.20
2020,09,29,03,48,10.10
2020,09,29,03,49,10.10
2020,09,29,03,50,10.10
2020,09,29,03,51,10.10
2020,09,29,03,52,10.10
2020,09,29,03,53,10.10
2020,09,29,03,54,10.10
2020,09,29,03,55,10.10
2020,09,29,03,56,10.10
2020,09,29,03,57,10.10
2020,09,29,03,58,10.10
2020,09,29,03,59,10.10
2020,09,29,04,00,10.00
2020,09,29,04,01,10.00
2020,09,29,04,02,10.00
2020,09,29,04,03,9.90
2020,09,29,04,04,9.90
2020,09,29,04,05,9.90
2020,09,29,04,06,9.90
2020,09,29,04,07,10.00
2020,09,29,04,08,10.00
2020,09,29,04,09,10.10
2020,09,29,04,10,10.10
2020,09,29,04,11,10.10
2020,09,29,04,12,10.10
2020,09,29,04,13,10.20
2020,09,29,04,14,10.20
2020,09,29,04,15,10.20
2020,09,29,04,16,10.20
2020,09,29,04,17,10.10
2020,09,29,04,18,10.10
2020,09,29,04,19,10.10
2020,09,29,04,20,10.10
2020,09,29,04,21,10.10
2020,09,29,04,22,10.10
2020,09,29,04,23,10.10
2020,09,29,04,24,10.10
2020,09,29,04,25,10.10
2020,09,29,04,26,10.10
2020,09,29,04,27,10.10
2020,09,29,04,28,10.10
2020,09,29,04,29,10.10
2020,09,29,04,30,10.00
2020,09,29,04,31,10.00
2020,09,29,04,32,9.90
2020,09,29,04,33,9.90
2020,09,29,04,34,9.90
2020,09,29,04,35,9.90
2020,09,29,04,36,9.90
2020,09,29,04,37,9.80
2020,09,29,04,38,9.80
2020,09,29,04,39,9.80
2020,09,29,04,40,9.80
2020,09,29,04,41,9.80
2020,09,29,04,42,9.70
2020,09,29,04,43,9.70
2020,09,29,04,44,9.70
2020,09,29,04,45,9.70
2020,09,29,04,46,9.70
2020,09,29,04,47,9.70
2020,09,29,04,48,9.70
2020,09,29,04,49,9.70
2020,09,29,04,50,9.70
2020,09,29,04,51,9.60
2020,09,29,04,52,9.60
2020,09,29,04,53,9.60
2020,09,29,04,54,9.60
2020,09,29,04,55,9.60
2020,09,29,04,56,9.60
2020,09,29,04,57,9.60
2020,09,29,04,58,9.60
2020,09,29,04,59,9.60
2020,09,29,05,00,9.60
2020,09,29,05,01,9.50
2020,09,29,05,02,9.50
2020,09,29,05,03,9.50
2020,09,29,05,04,9.50
2020,09,29,05,05,9.50
2020,09,29,05,06,9.50
2020,09,29,05,07,9.50
2020,09,29,05,08,9.40
2020,09,29,05,09,9.40
2020,09,29,05,10,9.40
2020,09,29,05,11,9.40
2020,09,29,05,12,9.40
2020,09,29,05,13,9.40
2020,09,29,05,14,9.40
2020,09,29,05,15,9.40
2020,09,29,05,16,9.50
2020,09,29,05,17,9.50
2020,09,29,05,18,9.50
2020,09,29,05,19,9.50
2020,09,29,05,20,9.60
2020,09,29,05,21,9.60
2020,09,29,05,22,9.60
2020,09,29,05,23,9.60
2020,09,29,05,24,9.60
2020,09,29,05,25,9.70
2020,09,29,05,26,9.70
2020,09,29,05,27,9.70
2020,09,29,05,28,9.70
2020,09,29,05,29,9.70
2020,09,29,05,30,9.70
2020,09,29,05,31,9.70
2020,09,29,05,32,9.70
2020,09,29,05,33,9.70
2020,09,29,05,34,9.60
2020,09,29,05,35,9.70
2020,09,29,05,36,9.60
2020,09,29,05,37,9.60
2020,09,29,05,38,9.60
2020,09,29,05,39,9.60
2020,09,29,05,40,9.60
2020,09,29,05,41,9.60
2020,09,29,05,42,9.60
2020,09,29,05,43,9.60
2020,09,29,05,44,9.60
2020,09,29,05,45,9.60
2020,09,29,05,46,9.60
2020,09,29,05,47,9.60
2020,09,29,05,48,9.50
2020,09,29,05,49,9.60
2020,09,29,05,50,9.60
2020,09,29,05,51,9.60
2020,09,29,05,52,9.60
2020,09,29,05,53,9.60
2020,09,29,05,54,9.70
2020,09,29,05,55,9.70
2020,09,29,05,56,9.70
2020,09,29,05,57,9.70
2020,09,29,05,58,9.70
2020,09,29,05,59,9.70
2020,09,29,06,00,9.70
2020,09,29,06,01,9.70
2020,09,29,06,02,9.70
2020,09,29,06,03,9.60
2020,09,29,06,04,9.60
2020,09,29,06,05,9.70
2020,09,29,06,06,9.70
2020,09,29,06,07,9.70
2020,09,29,06,08,9.70
2020,09,29,06,09,9.70
2020,09,29,06,10,9.70
2020,09,29,06,11,9.70
2020,09,29,06,12,9.70
2020,09,29,06,13,9.70
2020,09,29,06,14,9.60
2020,09,29,06,15,9.60
2020,09,29,06,16,9.60
2020,09,29,06,17,9.60
2020,09,29,06,18,9.60
2020,09,29,06,19,9.60
2020,09,29,06,20,9.60
2020,09,29,06,21,9.60
2020,09,29,06,22,9.60
2020,09,29,06,23,9.70
2020,09,29,06,24,9.70
2020,09,29,06,25,9.70
2020,09,29,06,26,9.70
2020,09,29,06,27,9.70
2020,09,29,06,28,9.70
2020,09,29,06,29,9.70
2020,09,29,06,30,9.80
2020,09,29,06,31,9.80
2020,09,29,06,32,9.80
2020,09,29,06,33,9.80
2020,09,29,06,34,9.80
2020,09,29,06,35,9.80
2020,09,29,06,36,9.80
2020,09,29,06,37,9.90
2020,09,29,06,38,9.90
2020,09,29,06,39,9.90
2020,09,29,06,40,9.90
2020,09,29,06,41,9.90
2020,09,29,06,42,9.90
2020,09,29,06,43,9.80
2020,09,29,06,44,9.80
2020,09,29,06,45,9.80
2020,09,29,06,46,9.80
2020,09,29,06,47,9.80
2020,09,29,06,48,9.80
2020,09,29,06,49,9.80
2020,09,29,06,50,9.80
2020,09,29,06,51,9.70
2020,09,29,06,52,9.70
2020,09,29,06,53,9.70
2020,09,29,06,54,9.60
2020,09,29,06,55,9.60
2020,09,29,06,56,9.60
2020,09,29,06,57,9.60
2020,09,29,06,58,9.50
2020,09,29,06,59,9.50
2020,09,29,07,00,9.50
2020,09,29,07,01,9.50
2020,09,29,07,02,9.40
2020,09,29,07,03,9.40
2020,09,29,07,04,9.40
2020,09,29,07,05,9.40
2020,09,29,07,06,9.40
2020,09,29,07,07,9.40
2020,09,29,07,08,9.40
2020,09,29,07,09,9.40
2020,09,29,07,10,9.40
2020,09,29,07,11,9.50
2020,09,29,07,12,9.50
2020,09,29,07,13,9.50
2020,09,29,07,14,9.50
2020,09,29,07,15,9.50
2020,09,29,07,16,9.50
2020,09,29,07,17,9.50
2020,09,29,07,18,9.50
2020,09,29,07,19,9.50
2020,09,29,07,20,9.50
2020,09,29,07,21,9.50
2020,09,29,07,22,9.50
2020,09,29,07,23,9.50
2020,09,29,07,24,9.50
2020,09,29,07,25,9.60
2020,09,29,07,26,9.60
2020,09,29,07,27,9.60
2020,09,29,07,28,9.60
2020,09,29,07,29,9.60
2020,09,29,07,30,9.60
2020,09,29,07,31,9.60
2020,09,29,07,32,9.60
2020,09,29,07,33,9.60
2020,09,29,07,34,9.60
2020,09,29,07,35,9.60
2020,09,29,07,36,9.60
2020,09,29,07,37,9.60
2020,09,29,07,38,9.70
2020,09,29,07,39,9.60
2020,09,29,07,40,9.70
2020,09,29,07,41,9.70
2020,09,29,07,42,9.70
2020,09,29,07,43,9.70
2020,09,29,07,44,9.80
2020,09,29,07,45,9.80
2020,09,29,07,46,9.80
2020,09,29,07,47,9.80
2020,09,29,07,48,9.80
2020,09,29,07,49,9.90
2020,09,29,07,50,10.00
2020,09,29,07,51,10.00
2020,09,29,07,52,10.10
2020,09,29,07,53,10.20
2020,09,29,07,54,10.20
2020,09,29,07,55,10.20
2020,09,29,07,56,10.20
2020,09,29,07,57,10.20
2020,09,29,07,58,10.20
2020,09,29,07,59,10.20
2020,09,29,08,00,10.20
2020,09,29,08,01,10.20
2020,09,29,08,02,10.30
2020,09,29,08,03,10.30
2020,09,29,08,04,10.30
2020,09,29,08,05,10.30
2020,09,29,08,06,10.20
2020,09,29,08,07,10.20
2020,09,29,08,08,10.20
2020,09,29,08,09,10.20
2020,09,29,08,10,10.30
2020,09,29,08,11,10.30
2020,09,29,08,12,10.30
2020,09,29,08,13,10.40
2020,09,29,08,14,10.40
2020,09,29,08,15,10.50
2020,09,29,08,16,10.50
2020,09,29,08,17,10.50
2020,09,29,08,18,10.60
2020,09,29,08,19,10.60
2020,09,29,08,20,10.70
2020,09,29,08,21,10.70
2020,09,29,08,22,10.80
2020,09,29,08,23,10.90
2020,09,29,08,24,11.00
2020,09,29,08,25,11.10
2020,09,29,08,26,11.20
2020,09,29,08,27,11.40
2020,09,29,08,28,11.60
2020,09,29,08,29,11.70
2020,09,29,08,30,11.70
2020,09,29,08,31,11.80
2020,09,29,08,32,11.80
2020,09,29,08,33,11.90
2020,09,29,08,34,11.90
2020,09,29,08,35,12.00
2020,09,29,08,36,12.10
2020,09,29,08,37,12.10
2020,09,29,08,38,12.20
2020,09,29,08,39,12.20
2020,09,29,08,40,12.30
2020,09,29,08,41,12.30
2020,09,29,08,42,12.40
2020,09,29,08,43,12.40
2020,09,29,08,44,12.50
2020,09,29,08,45,12.60
2020,09,29,08,46,12.70
2020,09,29,08,47,12.80
2020,09,29,08,48,12.90
2020,09,29,08,49,13.00
2020,09,29,08,50,13.10
2020,09,29,08,51,13.20
2020,09,29,08,52,13.20
2020,09,29,08,53,13.40
2020,09,29,08,54,13.40
2020,09,29,08,55,13.50
2020,09,29,08,56,13.70
2020,09,29,08,57,13.80
2020,09,29,08,58,13.80
2020,09,29,08,59,13.90
2020,09,29,09,00,14.00
2020,09,29,09,01,14.10
2020,09,29,09,02,14.10
2020,09,29,09,03,14.20
2020,09,29,09,04,14.20
2020,09,29,09,05,14.30
2020,09,29,09,06,14.30
2020,09,29,09,07,14.40
2020,09,29,09,08,14.40
2020,09,29,09,09,14.40
2020,09,29,09,10,14.50
2020,09,29,09,11,14.60
2020,09,29,09,12,14.60
2020,09,29,09,13,14.70
2020,09,29,09,14,14.70
2020,09,29,09,15,14.80
2020,09,29,09,16,14.80
2020,09,29,09,17,14.90
2020,09,29,09,18,15.00
2020,09,29,09,19,15.00
2020,09,29,09,20,15.10
2020,09,29,09,21,15.10
2020,09,29,09,22,15.10
2020,09,29,09,23,15.10
2020,09,29,09,24,15.10
2020,09,29,09,25,15.00
2020,09,29,09,26,15.00
2020,09,29,09,27,14.90
2020,09,29,09,28,15.00
2020,09,29,09,29,15.00
2020,09,29,09,30,14.90
2020,09,29,09,31,15.00
2020,09,29,09,32,15.10
2020,09,29,09,33,15.10
2020,09,29,09,34,15.10
2020,09,29,09,35,15.10
2020,09,29,09,36,15.10
2020,09,29,09,37,15.20
2020,09,29,09,38,15.30
2020,09,29,09,39,15.30
2020,09,29,09,40,15.50
2020,09,29,09,41,15.50
2020,09,29,09,42,15.60
2020,09,29,09,43,15.70
2020,09,29,09,44,15.70
2020,09,29,09,45,15.70
2020,09,29,09,46,15.80
2020,09,29,09,47,15.90
2020,09,29,09,48,15.90
2020,09,29,09,49,16.00
2020,09,29,09,50,16.10
2020,09,29,09,51,16.20
2020,09,29,09,52,16.20
2020,09,29,09,53,16.30
2020,09,29,09,54,16.30
2020,09,29,09,55,16.30
2020,09,29,09,56,16.30
2020,09,29,09,57,16.30
2020,09,29,09,58,16.30
2020,09,29,09,59,16.40
2020,09,29,10,00,16.50
2020,09,29,10,01,16.60
2020,09,29,10,02,16.60
2020,09,29,10,03,16.60
2020,09,29,10,04,16.60
2020,09,29,10,05,16.70
2020,09,29,10,06,16.70
2020,09,29,10,07,16.70
2020,09,29,10,08,16.80
2020,09,29,10,09,16.80
2020,09,29,10,10,16.80
2020,09,29,10,11,16.80
2020,09,29,10,12,16.80
2020,09,29,10,13,16.80
2020,09,29,10,14,16.80
2020,09,29,10,15,16.80
2020,09,29,10,16,16.80
2020,09,29,10,17,16.80
2020,09,29,10,18,16.80
2020,09,29,10,19,16.80
2020,09,29,10,20,16.80
2020,09,29,10,21,16.90
2020,09,29,10,22,16.90
2020,09,29,10,23,17.00
2020,09,29,10,24,17.00
2020,09,29,10,25,17.10
2020,09,29,10,26,17.10
2020,09,29,10,27,17.10
2020,09,29,10,28,17.20
2020,09,29,10,29,17.10
2020,09,29,10,30,17.10
2020,09,29,10,31,17.00
2020,09,29,10,32,16.90
2020,09,29,10,33,16.80
2020,09,29,10,34,16.70
2020,09,29,10,35,16.60
2020,09,29,10,36,16.50
2020,09,29,10,37,16.40
2020,09,29,10,38,16.30
2020,09,29,10,39,16.30
2020,09,29,10,40,16.30
2020,09,29,10,41,16.20
2020,09,29,10,42,16.20
2020,09,29,10,43,16.20
2020,09,29,10,44,16.10
2020,09,29,10,45,16.10
2020,09,29,10,46,16.10
2020,09,29,10,47,16.10
2020,09,29,10,48,16.10
2020,09,29,10,49,16.00
2020,09,29,10,50,16.00
2020,09,29,10,51,16.10
2020,09,29,10,52,16.10
2020,09,29,10,53,16.10
2020,09,29,10,54,16.20
2020,09,29,10,55,16.20
2020,09,29,10,56,16.20
2020,09,29,10,57,16.30
2020,09,29,10,58,16.30
2020,09,29,10,59,16.30
2020,09,29,11,00,16.30
2020,09,29,11,01,16.20
2020,09,29,11,02,16.20
2020,09,29,11,03,16.20
2020,09,29,11,04,16.20
2020,09,29,11,05,16.20
2020,09,29,11,06,16.20
2020,09,29,11,07,16.20
2020,09,29,11,08,16.20
2020,09,29,11,09,16.20
2020,09,29,11,10,16.20
2020,09,29,11,11,16.20
2020,09,29,11,12,16.30
2020,09,29,11,13,16.30
2020,09,29,11,14,16.40
2020,09,29,11,15,16.50
2020,09,29,11,16,16.50
2020,09,29,11,17,16.60
2020,09,29,11,18,16.60
2020,09,29,11,19,16.60
2020,09,29,11,20,16.60
2020,09,29,11,21,16.50
2020,09,29,11,22,16.40
2020,09,29,11,23,16.40
2020,09,29,11,24,16.40
2020,09,29,11,25,16.40
2020,09,29,11,26,16.30
2020,09,29,11,27,16.30
2020,09,29,11,28,16.40
2020,09,29,11,29,16.40
2020,09,29,11,30,16.40
2020,09,29,11,31,16.30
2020,09,29,11,32,16.30
2020,09,29,11,33,16.30
2020,09,29,11,34,16.30
2020,09,29,11,35,16.20
2020,09,29,11,36,16.20
2020,09,29,11,37,16.20
2020,09,29,11,38,16.20
2020,09,29,11,39,16.20
2020,09,29,11,40,16.20
2020,09,29,11,41,16.20
2020,09,29,11,42,16.20
2020,09,29,11,43,16.20
2020,09,29,11,44,16.30
2020,09,29,11,45,16.30
2020,09,29,11,46,16.40
2020,09,29,11,47,16.40
2020,09,29,11,48,16.60
2020,09,29,11,49,16.70
2020,09,29,11,50,16.80
2020,09,29,11,51,16.80
2020,09,29,11,52,16.90
2020,09,29,11,53,16.90
2020,09,29,11,54,17.00
2020,09,29,11,55,17.10
2020,09,29,11,56,17.10
2020,09,29,11,57,17.10
2020,09,29,11,58,17.10
2020,09,29,11,59,17.10
2020,09,29,12,00,17.20
2020,09,29,12,01,17.20
2020,09,29,12,02,17.30
2020,09,29,12,03,17.30
2020,09,29,12,04,17.40
2020,09,29,12,05,17.40
2020,09,29,12,06,17.50
2020,09,29,12,07,17.50
2020,09,29,12,08,17.50
2020,09,29,12,09,17.50
2020,09,29,12,10,17.50
2020,09,29,12,11,17.40
2020,09,29,12,12,17.30
2020,09,29,12,13,17.30
2020,09,29,12,14,17.30
2020,09,29,12,15,17.30
2020,09,29,12,16,17.20
2020,09,29,12,17,17.20
2020,09,29,12,18,17.20
2020,09,29,12,19,17.20
2020,09,29,12,20,17.20
2020,09,29,12,21,17.20
2020,09,29,12,22,17.20
2020,09,29,12,23,17.30
2020,09,29,12,24,17.30
2020,09,29,12,25,17.40
2020,09,29,12,26,17.50
2020,09,29,12,27,17.60
2020,09,29,12,28,17.70
2020,09,29,12,29,17.80
2020,09,29,12,30,17.90
2020,09,29,12,31,18.00
2020,09,29,12,32,18.10
2020,09,29,12,33,18.10
2020,09,29,12,34,18.20
2020,09,29,12,35,18.30
2020,09,29,12,36,18.30
2020,09,29,12,37,18.30
2020,09,29,12,38,18.20
2020,09,29,12,39,18.20
2020,09,29,12,40,18.20
2020,09,29,12,41,18.10
2020,09,29,12,42,18.10
2020,09,29,12,43,18.00
2020,09,29,12,44,17.90
2020,09,29,12,45,17.90
2020,09,29,12,46,17.90
2020,09,29,12,47,17.80
2020,09,29,12,48,17.90
2020,09,29,12,49,17.90
2020,09,29,12,50,17.80
2020,09,29,12,51,17.80
2020,09,29,12,52,17.80
2020,09,29,12,53,17.80
2020,09,29,12,54,17.70
2020,09,29,12,55,17.70
2020,09,29,12,56,17.70
2020,09,29,12,57,17.70
2020,09,29,12,58,17.70
2020,09,29,12,59,17.70
2020,09,29,13,00,17.70
2020,09,29,13,01,17.70
2020,09,29,13,02,17.70
2020,09,29,13,03,17.70
2020,09,29,13,04,17.70
2020,09,29,13,05,17.60
2020,09,29,13,06,17.60
2020,09,29,13,07,17.60
2020,09,29,13,08,17.60
2020,09,29,13,09,17.50
2020,09,29,13,10,17.50
2020,09,29,13,11,17.50
2020,09,29,13,12,17.50
2020,09,29,13,13,17.50
2020,09,29,13,14,17.50
2020,09,29,13,15,17.50
2020,09,29,13,16,17.60
2020,09,29,13,17,17.60
2020,09,29,13,18,17.60
2020,09,29,13,19,17.70
2020,09,29,13,20,17.70
2020,09,29,13,21,17.80
2020,09,29,13,22,17.80
2020,09,29,13,23,17.80
2020,09,29,13,24,17.90
2020,09,29,13,25,17.90
2020,09,29,13,26,18.00
2020,09,29,13,27,18.00
2020,09,29,13,28,18.00
2020,09,29,13,29,18.00
2020,09,29,13,30,18.10
2020,09,29,13,31,18.10
2020,09,29,13,32,18.20
2020,09,29,13,33,18.20
2020,09,29,13,34,18.20
2020,09,29,13,35,18.20
2020,09,29,13,36,18.30
2020,09,29,13,37,18.30
2020,09,29,13,38,18.30
2020,09,29,13,39,18.30
2020,09,29,13,40,18.30
2020,09,29,13,41,18.20
2020,09,29,13,42,18.20
2020,09,29,13,43,18.20
2020,09,29,13,44,18.20
2020,09,29,13,45,18.20
2020,09,29,13,46,18.20
2020,09,29,13,47,18.10
2020,09,29,13,48,18.10
2020,09,29,13,49,18.00
2020,09,29,13,50,18.00
2020,09,29,13,51,18.00
2020,09,29,13,52,18.10
2020,09,29,13,53,18.20
2020,09,29,13,54,18.20
2020,09,29,13,55,18.30
2020,09,29,13,56,18.30
2020,09,29,13,57,18.30
2020,09,29,13,58,18.40
2020,09,29,13,59,18.40
2020,09,29,14,00,18.40
2020,09,29,14,01,18.30
2020,09,29,14,02,18.30
2020,09,29,14,03,18.30
2020,09,29,14,04,18.30
2020,09,29,14,05,18.30
2020,09,29,14,06,18.30
2020,09,29,14,07,18.30
2020,09,29,14,08,18.30
2020,09,29,14,09,18.30
2020,09,29,14,10,18.30
2020,09,29,14,11,18.30
2020,09,29,14,12,18.30
2020,09,29,14,13,18.40
2020,09,29,14,14,18.40
2020,09,29,14,15,18.40
2020,09,29,14,16,18.40
2020,09,29,14,17,18.50
2020,09,29,14,18,18.50
2020,09,29,14,19,18.60
2020,09,29,14,20,18.60
2020,09,29,14,21,18.70
2020,09,29,14,22,18.70
2020,09,29,14,23,18.70
2020,09,29,14,24,18.80
2020,09,29,14,25,18.80
2020,09,29,14,26,18.80
2020,09,29,14,27,18.90
2020,09,29,14,28,18.90
2020,09,29,14,29,19.00
2020,09,29,14,30,19.10
2020,09,29,14,31,19.20
2020,09,29,14,32,19.20
2020,09,29,14,33,19.30
2020,09,29,14,34,19.30
2020,09,29,14,35,19.40
2020,09,29,14,36,19.40
2020,09,29,14,37,19.50
2020,09,29,14,38,19.60
2020,09,29,14,39,19.60
2020,09,29,14,40,19.60
2020,09,29,14,41,19.60
2020,09,29,14,42,19.70
2020,09,29,14,43,19.70
2020,09,29,14,44,19.70
2020,09,29,14,45,19.70
2020,09,29,14,46,19.70
2020,09,29,14,47,19.70
2020,09,29,14,48,19.60
2020,09,29,14,49,19.60
2020,09,29,14,50,19.60
2020,09,29,14,51,19.60
2020,09,29,14,52,19.60
2020,09,29,14,53,19.50
2020,09,29,14,54,19.60
2020,09,29,14,55,19.60
2020,09,29,14,56,19.70
2020,09,29,14,57,19.70
2020,09,29,14,58,19.70
2020,09,29,14,59,19.70
2020,09,29,15,00,19.70
2020,09,29,15,01,19.70
2020,09,29,15,02,19.70
2020,09,29,15,03,19.70
2020,09,29,15,04,19.70
2020,09,29,15,05,19.80
2020,09,29,15,06,19.80
2020,09,29,15,07,19.80
2020,09,29,15,08,19.80
2020,09,29,15,09,19.80
2020,09,29,15,10,19.80
2020,09,29,15,11,19.80
2020,09,29,15,12,19.70
2020,09,29,15,13,19.70
2020,09,29,15,14,19.70
2020,09,29,15,15,19.70
2020,09,29,15,16,19.70
2020,09,29,15,17,19.70
2020,09,29,15,18,19.70
2020,09,29,15,19,19.70
2020,09,29,15,20,19.70
2020,09,29,15,21,19.70
2020,09,29,15,22,19.80
2020,09,29,15,23,19.80
2020,09,29,15,24,19.80
2020,09,29,15,25,19.80
2020,09,29,15,26,19.80
2020,09,29,15,27,19.80
2020,09,29,15,28,19.80
2020,09,29,15,29,19.80
2020,09,29,15,30,19.80
2020,09,29,15,31,19.90
2020,09,29,15,32,19.90
2020,09,29,15,33,19.90
2020,09,29,15,34,20.00
2020,09,29,15,35,20.00
2020,09,29,15,36,20.00
2020,09,29,15,37,20.00
2020,09,29,15,38,20.00
2020,09,29,15,39,20.10
2020,09,29,15,40,20.10
2020,09,29,15,41,20.00
2020,09,29,15,42,20.00
2020,09,29,15,43,20.00
2020,09,29,15,44,20.00
2020,09,29,15,45,20.00
2020,09,29,15,46,20.00
2020,09,29,15,47,20.00
2020,09,29,15,48,20.00
2020,09,29,15,49,20.10
2020,09,29,15,50,20.10
2020,09,29,15,51,20.10
2020,09,29,15,52,20.10
2020,09,29,15,53,20.20
2020,09,29,15,54,20.20
2020,09,29,15,55,20.20
2020,09,29,15,56,20.20
2020,09,29,15,57,20.20
2020,09,29,15,58,20.30
2020,09,29,15,59,20.30
2020,09,29,16,00,20.30
2020,09,29,16,01,20.30
2020,09,29,16,02,20.30
2020,09,29,16,03,20.40
2020,09,29,16,04,20.40
2020,09,29,16,05,20.50
2020,09,29,16,06,20.60
2020,09,29,16,07,20.60
2020,09,29,16,08,20.70
2020,09,29,16,09,20.70
2020,09,29,16,10,20.70
2020,09,29,16,11,20.70
2020,09,29,16,12,20.70
2020,09,29,16,13,20.60
2020,09,29,16,14,20.60
2020,09,29,16,15,20.60
2020,09,29,16,16,20.60
2020,09,29,16,17,20.60
2020,09,29,16,18,20.60
2020,09,29,16,19,20.60
2020,09,29,16,20,20.60
2020,09,29,16,21,20.60
2020,09,29,16,22,20.60
2020,09,29,16,23,20.70
2020,09,29,16,24,20.70
2020,09,29,16,25,20.80
2020,09,29,16,26,20.80
2020,09,29,16,27,20.80
2020,09,29,16,28,20.80
2020,09,29,16,29,20.80
2020,09,29,16,30,20.80
2020,09,29,16,31,20.90
2020,09,29,16,32,20.90
2020,09,29,16,33,20.90
2020,09,29,16,34,21.00
2020,09,29,16,35,21.00
2020,09,29,16,36,21.00
2020,09,29,16,37,21.00
2020,09,29,16,38,21.10
2020,09,29,16,39,21.10
2020,09,29,16,40,21.00
2020,09,29,16,41,21.00
2020,09,29,16,42,20.90
2020,09,29,16,43,20.90
2020,09,29,16,44,20.90
2020,09,29,16,45,20.90
2020,09,29,16,46,20.90
2020,09,29,16,47,20.90
2020,09,29,16,48,20.90
2020,09,29,16,49,21.00
2020,09,29,16,50,21.00
2020,09,29,16,51,21.00
2020,09,29,16,52,21.00
2020,09,29,16,53,21.10
2020,09,29,16,54,21.10
2020,09,29,16,55,21.10
2020,09,29,16,56,21.10
2020,09,29,16,57,21.10
2020,09,29,16,58,21.10
2020,09,29,16,59,21.10
2020,09,29,17,00,21.10
2020,09,29,17,01,21.10
2020,09,29,17,02,21.20
2020,09,29,17,03,21.20
2020,09,29,17,04,21.30
2020,09,29,17,05,21.30
2020,09,29,17,06,21.30
2020,09,29,17,07,21.40
2020,09,29,17,08,21.40
2020,09,29,17,09,21.40
2020,09,29,17,10,21.50
2020,09,29,17,11,21.50
2020,09,29,17,12,21.60
2020,09,29,17,13,21.60
2020,09,29,17,14,21.70
2020,09,29,17,15,21.70
2020,09,29,17,16,21.70
2020,09,29,17,17,21.70
2020,09,29,17,18,21.70
2020,09,29,17,19,21.70
2020,09,29,17,20,21.70
2020,09,29,17,21,21.80
2020,09,29,17,22,21.80
2020,09,29,17,23,21.80
2020,09,29,17,24,21.80
2020,09,29,17,25,21.80
2020,09,29,17,26,21.70
2020,09,29,17,27,21.70
2020,09,29,17,28,21.70